| time (UTC) | temp F | wind direction | speed MPH | gust MPH | rain 1hr in | rain 24hr in | rain mn in | humidity % | barometer mb |
| 20260906142958 | 81 | 26 | 0.0 | 0.0 | 0.00 | 0.01 | 0.00 | 88 | 1018.4 |
| 20260906142457 | 81 | 14 | 0.0 | 1.0 | 0.00 | 0.01 | 0.00 | 89 | 1018.5 |
| 20260906141957 | 80 | 13 | 0.0 | 1.0 | 0.00 | 0.01 | 0.00 | 89 | 1018.4 |
| 20260906141458 | 80 | 311 | 0.0 | 1.0 | 0.00 | 0.01 | 0.00 | 89 | 1018.3 |
| 20260906140958 | 80 | 304 | 0.0 | 2.0 | 0.00 | 0.01 | 0.00 | 91 | 1018.3 |
| 20260906140458 | 79 | 304 | 0.0 | 1.0 | 0.00 | 0.01 | 0.00 | 93 | 1018.3 |
| 20260906140000 | 78 | 304 | 0.0 | 0.0 | 0.00 | 0.01 | 0.00 | 93 | 1018.3 |
| 20260906135457 | 77 | 304 | 0.0 | 0.0 | 0.00 | 0.01 | 0.00 | 95 | 1018.3 |
| 20260906134957 | 76 | 304 | 0.0 | 0.0 | 0.00 | 0.01 | 0.00 | 95 | 1018.3 |
| 20260906134458 | 76 | 304 | 0.0 | 1.0 | 0.00 | 0.01 | 0.00 | 95 | 1018.3 |
| 20260906133957 | 75 | 304 | 0.0 | 3.0 | 0.00 | 0.01 | 0.00 | 95 | 1018.4 |
| 20260906133457 | 75 | 304 | 0.0 | 3.0 | 0.00 | 0.01 | 0.00 | 95 | 1018.5 |
| 20260906132957 | 75 | 202 | 0.0 | 0.0 | 0.00 | 0.01 | 0.00 | 95 | 1018.5 |
| 20260906132458 | 75 | 202 | 0.0 | 0.0 | 0.00 | 0.01 | 0.00 | 95 | 1018.4 |
| 20260906131958 | 75 | 202 | 0.0 | 0.0 | 0.00 | 0.01 | 0.00 | 96 | 1018.4 |
| 20260906131458 | 75 | 202 | 0.0 | 0.0 | 0.00 | 0.01 | 0.00 | 96 | 1018.4 |
| 20260906130957 | 74 | 202 | 0.0 | 0.0 | 0.00 | 0.01 | 0.00 | 95 | 1018.4 |
| 20260906130457 | 74 | 202 | 0.0 | 0.0 | 0.00 | 0.01 | 0.00 | 96 | 1018.4 |
| 20260906125959 | 74 | 202 | 0.0 | 0.0 | 0.00 | 0.01 | 0.00 | 96 | 1018.3 |
| 20260906125457 | 74 | 202 | 0.0 | 0.0 | 0.00 | 0.01 | 0.00 | 95 | 1018.3 |
| 20260906123957 | 74 | 202 | 0.0 | 0.0 | 0.00 | 0.01 | 0.00 | 96 | 1018.2 |
| 20260906123458 | 74 | 202 | 0.0 | 0.0 | 0.00 | 0.01 | 0.00 | 96 | 1018.2 |
| 20260906122958 | 74 | 202 | 0.0 | 0.0 | 0.00 | 0.01 | 0.00 | 96 | 1018.2 |
| 20260906122457 | 74 | 202 | 0.0 | 0.0 | 0.00 | 0.01 | 0.00 | 95 | 1018.0 |
| 20260906121457 | 74 | 202 | 0.0 | 0.0 | 0.00 | 0.01 | 0.00 | 95 | 1017.9 |
| 20260906120957 | 74 | 202 | 0.0 | 0.0 | 0.00 | 0.01 | 0.00 | 96 | 1017.9 |
| 20260906115959 | 74 | 202 | 0.0 | 0.0 | 0.00 | 0.01 | 0.00 | 96 | 1017.8 |
| 20260906115457 | 74 | 202 | 0.0 | 0.0 | 0.00 | 0.01 | 0.00 | 96 | 1017.9 |
| 20260906114957 | 74 | 202 | 0.0 | 0.0 | 0.00 | 0.01 | 0.00 | 96 | 1017.8 |
| 20260906114459 | 74 | 202 | 0.0 | 0.0 | 0.00 | 0.01 | 0.00 | 96 | 1017.7 |
| 20260906113957 | 74 | 202 | 0.0 | 0.0 | 0.00 | 0.01 | 0.00 | 96 | 1017.7 |
| 20260906113457 | 74 | 202 | 0.0 | 0.0 | 0.00 | 0.01 | 0.00 | 96 | 1017.7 |
| 20260906112958 | 74 | 202 | 0.0 | 0.0 | 0.00 | 0.01 | 0.00 | 96 | 1017.6 |
| 20260906112458 | 74 | 202 | 0.0 | 0.0 | 0.00 | 0.01 | 0.00 | 96 | 1017.5 |
| 20260906111958 | 74 | 202 | 0.0 | 0.0 | 0.00 | 0.01 | 0.00 | 96 | 1017.5 |
| 20260906111458 | 74 | 202 | 0.0 | 0.0 | 0.00 | 0.01 | 0.00 | 96 | 1017.5 |
| 20260906110957 | 74 | 202 | 0.0 | 0.0 | 0.00 | 0.01 | 0.00 | 96 | 1017.5 |
| 20260906110457 | 74 | 202 | 0.0 | 0.0 | 0.00 | 0.01 | 0.00 | 96 | 1017.4 |
| 20260906105959 | 74 | 202 | 0.0 | 0.0 | 0.00 | 0.01 | 0.00 | 96 | 1017.3 |
| 20260906105457 | 74 | 202 | 0.0 | 0.0 | 0.00 | 0.01 | 0.00 | 96 | 1017.3 |
| 20260906104957 | 75 | 202 | 0.0 | 0.0 | 0.00 | 0.01 | 0.00 | 96 | 1017.2 |
| 20260906104459 | 75 | 202 | 0.0 | 0.0 | 0.00 | 0.01 | 0.00 | 96 | 1017.4 |
| 20260906103957 | 75 | 202 | 0.0 | 0.0 | 0.00 | 0.01 | 0.00 | 95 | 1017.2 |
| 20260906102957 | 75 | 202 | 0.0 | 0.0 | 0.00 | 0.01 | 0.00 | 95 | 1017.1 |
| 20260906102457 | 75 | 202 | 0.0 | 0.0 | 0.00 | 0.01 | 0.00 | 95 | 1017.0 |
| 20260906101958 | 75 | 202 | 0.0 | 0.0 | 0.00 | 0.01 | 0.00 | 95 | 1017.0 |
| 20260906101458 | 75 | 202 | 0.0 | 0.0 | 0.00 | 0.01 | 0.00 | 95 | 1017.0 |
| 20260906100957 | 75 | 202 | 0.0 | 0.0 | 0.00 | 0.01 | 0.00 | 95 | 1016.9 |
| 20260906100000 | 76 | 202 | 0.0 | 0.0 | 0.00 | 0.01 | 0.00 | 95 | 1017.0 |
| 20260906094957 | 76 | 202 | 0.0 | 0.0 | 0.00 | 0.01 | 0.00 | 95 | 1016.9 |
| 20260906094458 | 76 | 202 | 0.0 | 0.0 | 0.00 | 0.01 | 0.00 | 95 | 1016.8 |
| 20260906093957 | 76 | 202 | 0.0 | 0.0 | 0.00 | 0.01 | 0.00 | 95 | 1016.7 |
| 20260906092958 | 76 | 202 | 0.0 | 0.0 | 0.00 | 0.01 | 0.00 | 95 | 1016.7 |
| 20260906091958 | 76 | 202 | 0.0 | 0.0 | 0.00 | 0.01 | 0.00 | 96 | 1016.6 |
| 20260906091458 | 76 | 202 | 0.0 | 0.0 | 0.00 | 0.01 | 0.00 | 96 | 1016.5 |
| 20260906090958 | 76 | 202 | 0.0 | 0.0 | 0.00 | 0.01 | 0.00 | 96 | 1016.5 |
| 20260906090457 | 76 | 202 | 0.0 | 0.0 | 0.00 | 0.01 | 0.00 | 95 | 1016.4 |
| 20260906090000 | 76 | 202 | 0.0 | 0.0 | 0.00 | 0.01 | 0.00 | 95 | 1016.3 |
| 20260906085457 | 77 | 202 | 0.0 | 0.0 | 0.00 | 0.01 | 0.00 | 96 | 1016.3 |
| 20260906084958 | 77 | 202 | 0.0 | 0.0 | 0.00 | 0.01 | 0.00 | 95 | 1016.4 |
| 20260906083958 | 77 | 202 | 0.0 | 0.0 | 0.00 | 0.01 | 0.00 | 95 | 1016.4 |
| 20260906082958 | 77 | 202 | 0.0 | 0.0 | 0.00 | 0.01 | 0.00 | 95 | 1016.4 |
| 20260906082457 | 77 | 202 | 0.0 | 0.0 | 0.00 | 0.01 | 0.00 | 95 | 1016.4 |
| 20260906081957 | 77 | 202 | 0.0 | 0.0 | 0.00 | 0.01 | 0.00 | 95 | 1016.3 |
| 20260906080957 | 77 | 202 | 0.0 | 0.0 | 0.00 | 0.01 | 0.00 | 95 | 1016.3 |
| 20260906080458 | 77 | 202 | 0.0 | 0.0 | 0.00 | 0.01 | 0.00 | 95 | 1016.4 |
| 20260906075959 | 77 | 202 | 0.0 | 0.0 | 0.00 | 0.01 | 0.00 | 95 | 1016.3 |
| 20260906074956 | 77 | 202 | 0.0 | 0.0 | 0.00 | 0.01 | 0.00 | 95 | 1016.2 |
| 20260906074458 | 77 | 202 | 0.0 | 0.0 | 0.00 | 0.01 | 0.00 | 95 | 1016.1 |
| 20260906073956 | 77 | 202 | 0.0 | 0.0 | 0.00 | 0.01 | 0.00 | 95 | 1016.2 |
| 20260906073456 | 77 | 202 | 0.0 | 0.0 | 0.00 | 0.01 | 0.00 | 95 | 1016.1 |
| 20260906072957 | 77 | 202 | 0.0 | 0.0 | 0.00 | 0.01 | 0.00 | 96 | 1016.1 |
| 20260906072457 | 77 | 202 | 0.0 | 0.0 | 0.00 | 0.01 | 0.00 | 96 | 1016.1 |
| 20260906071957 | 77 | 202 | 0.0 | 0.0 | 0.00 | 0.01 | 0.00 | 96 | 1016.1 |
| 20260906070956 | 77 | 202 | 0.0 | 0.0 | 0.00 | 0.01 | 0.00 | 96 | 1016.2 |
| 20260906070456 | 77 | 202 | 0.0 | 0.0 | 0.00 | 0.01 | 0.00 | 96 | 1016.2 |
| 20260906065957 | 77 | 202 | 0.0 | 0.0 | 0.00 | 0.01 | 0.00 | 96 | 1016.2 |
| 20260906065456 | 77 | 202 | 0.0 | 0.0 | 0.00 | 0.01 | 0.00 | 96 | 1016.3 |
| 20260906064956 | 77 | 202 | 0.0 | 0.0 | 0.00 | 0.01 | 0.00 | 96 | 1016.3 |
| 20260906064457 | 77 | 202 | 0.0 | 0.0 | 0.00 | 0.01 | 0.00 | 96 | 1016.4 |
| 20260906063456 | 77 | 202 | 0.0 | 0.0 | 0.00 | 0.01 | 0.00 | 96 | 1016.4 |
| 20260906062957 | 77 | 202 | 0.0 | 0.0 | 0.00 | 0.01 | 0.00 | 96 | 1016.4 |
| 20260906062456 | 77 | 202 | 0.0 | 0.0 | 0.00 | 0.01 | 0.00 | 95 | 1016.4 |
| 20260906061956 | 77 | 202 | 0.0 | 0.0 | 0.00 | 0.01 | 0.00 | 95 | 1016.4 |
| 20260906061457 | 77 | 202 | 0.0 | 0.0 | 0.00 | 0.01 | 0.00 | 95 | 1016.4 |
| 20260906060957 | 77 | 202 | 0.0 | 0.0 | 0.00 | 0.01 | 0.00 | 95 | 1016.5 |
| 20260906055959 | 77 | 202 | 0.0 | 0.0 | 0.00 | 0.01 | 0.00 | 95 | 1016.5 |
| 20260906054957 | 77 | 202 | 0.0 | 0.0 | 0.00 | 0.01 | 0.00 | 95 | 1016.5 |
| 20260906054456 | 77 | 202 | 0.0 | 0.0 | 0.00 | 0.01 | 0.00 | 95 | 1016.4 |
| 20260906053956 | 77 | 202 | 0.0 | 0.0 | 0.00 | 0.01 | 0.00 | 95 | 1016.4 |
| 20260906053456 | 77 | 202 | 0.0 | 0.0 | 0.00 | 0.01 | 0.00 | 95 | 1016.4 |
| 20260906052957 | 77 | 202 | 0.0 | 0.0 | 0.00 | 0.01 | 0.00 | 95 | 1016.3 |
| 20260906052456 | 77 | 202 | 0.0 | 0.0 | 0.00 | 0.01 | 0.00 | 95 | 1016.3 |
| 20260906051956 | 77 | 202 | 0.0 | 0.0 | 0.00 | 0.01 | 0.00 | 95 | 1016.3 |
| 20260906051456 | 78 | 202 | 0.0 | 0.0 | 0.00 | 0.01 | 0.00 | 95 | 1016.3 |
| 20260906050959 | 78 | 202 | 0.0 | 0.0 | 0.00 | 0.01 | 0.00 | 95 | 1016.3 |
| 20260906050459 | 78 | 202 | 0.0 | 0.0 | 0.00 | 0.01 | 0.00 | 95 | 1016.3 |
| 20260906050003 | 78 | 202 | 0.0 | 0.0 | 0.00 | 0.01 | 0.00 | 95 | 1016.2 |
| 20260906045459 | 78 | 202 | 0.0 | 0.0 | 0.00 | 0.01 | 0.01 | 94 | 1016.1 |
| 20260906044458 | 78 | 202 | 0.0 | 0.0 | 0.00 | 0.01 | 0.01 | 94 | 1016.1 |
| 20260906043959 | 78 | 202 | 0.0 | 0.0 | 0.00 | 0.01 | 0.01 | 94 | 1016.1 |
| 20260906043459 | 78 | 202 | 0.0 | 0.0 | 0.00 | 0.01 | 0.01 | 94 | 1016.0 |
| 20260906042959 | 78 | 202 | 0.0 | 0.0 | 0.00 | 0.01 | 0.01 | 94 | 1016.1 |
| 20260906041958 | 78 | 202 | 0.0 | 0.0 | 0.00 | 0.01 | 0.01 | 93 | 1016.1 |
| 20260906041459 | 78 | 202 | 0.0 | 0.0 | 0.00 | 0.01 | 0.01 | 93 | 1015.9 |
| 20260906041000 | 78 | 202 | 0.0 | 0.0 | 0.00 | 0.01 | 0.01 | 93 | 1016.0 |
| 20260906040500 | 78 | 202 | 0.0 | 0.0 | 0.00 | 0.01 | 0.01 | 93 | 1016.0 |
| 20260906040001 | 78 | 202 | 0.0 | 0.0 | 0.00 | 0.01 | 0.01 | 93 | 1016.0 |
| 20260906035458 | 78 | 202 | 0.0 | 0.0 | 0.00 | 0.01 | 0.01 | 93 | 1015.9 |
| 20260906034958 | 78 | 202 | 0.0 | 0.0 | 0.00 | 0.01 | 0.01 | 93 | 1015.8 |
| 20260906034459 | 78 | 202 | 0.0 | 0.0 | 0.00 | 0.01 | 0.01 | 93 | 1015.8 |
| 20260906033958 | 78 | 202 | 0.0 | 0.0 | 0.00 | 0.01 | 0.01 | 93 | 1015.6 |
| 20260906033458 | 78 | 202 | 0.0 | 0.0 | 0.00 | 0.01 | 0.01 | 93 | 1015.7 |
| 20260906032959 | 79 | 202 | 0.0 | 0.0 | 0.00 | 0.01 | 0.01 | 93 | 1015.6 |
| 20260906032458 | 79 | 202 | 0.0 | 0.0 | 0.00 | 0.01 | 0.01 | 93 | 1015.6 |
| 20260906031958 | 79 | 202 | 0.0 | 0.0 | 0.00 | 0.01 | 0.01 | 93 | 1015.5 |
| 20260906031458 | 79 | 202 | 0.0 | 0.0 | 0.00 | 0.01 | 0.01 | 93 | 1015.5 |
| 20260906030958 | 79 | 202 | 0.0 | 0.0 | 0.00 | 0.01 | 0.01 | 94 | 1015.4 |
| 20260906030459 | 79 | 202 | 0.0 | 0.0 | 0.00 | 0.01 | 0.01 | 94 | 1015.4 |
| 20260906030000 | 79 | 202 | 0.0 | 0.0 | 0.00 | 0.01 | 0.01 | 94 | 1015.4 |
| 20260906025458 | 80 | 202 | 0.0 | 0.0 | 0.00 | 0.01 | 0.01 | 93 | 1015.2 |
| 20260906024958 | 80 | 202 | 0.0 | 0.0 | 0.00 | 0.01 | 0.01 | 93 | 1015.2 |
| 20260906024459 | 80 | 202 | 0.0 | 0.0 | 0.00 | 0.01 | 0.01 | 93 | 1015.0 |
| 20260906023957 | 80 | 202 | 0.0 | 0.0 | 0.00 | 0.01 | 0.01 | 93 | 1015.1 |
| 20260906022959 | 80 | 202 | 0.0 | 0.0 | 0.00 | 0.01 | 0.01 | 93 | 1015.0 |
| 20260906021958 | 81 | 202 | 0.0 | 0.0 | 0.00 | 0.01 | 0.01 | 92 | 1014.9 |
| 20260906021459 | 81 | 202 | 0.0 | 0.0 | 0.00 | 0.01 | 0.01 | 92 | 1014.8 |
| 20260906020958 | 81 | 202 | 0.0 | 0.0 | 0.00 | 0.01 | 0.01 | 92 | 1014.8 |
| 20260906020458 | 81 | 202 | 0.0 | 0.0 | 0.00 | 0.01 | 0.01 | 92 | 1014.6 |
| 20260906020001 | 82 | 202 | 0.0 | 0.0 | 0.00 | 0.01 | 0.01 | 91 | 1014.6 |
| 20260906015459 | 82 | 202 | 0.0 | 0.0 | 0.00 | 0.01 | 0.01 | 91 | 1014.5 |
| 20260906014959 | 82 | 202 | 0.0 | 0.0 | 0.00 | 0.01 | 0.01 | 90 | 1014.5 |
| 20260906014501 | 82 | 202 | 0.0 | 0.0 | 0.00 | 0.01 | 0.01 | 89 | 1014.5 |
| 20260906014000 | 83 | 202 | 0.0 | 0.0 | 0.00 | 0.01 | 0.01 | 88 | 1014.4 |
| 20260906013459 | 83 | 202 | 0.0 | 0.0 | 0.00 | 0.01 | 0.01 | 88 | 1014.4 |
| 20260906013000 | 83 | 202 | 0.0 | 0.0 | 0.00 | 0.01 | 0.01 | 88 | 1014.2 |
| 20260906012459 | 83 | 202 | 0.0 | 0.0 | 0.00 | 0.01 | 0.01 | 87 | 1014.3 |
| 20260906011001 | 84 | 202 | 0.0 | 0.0 | 0.00 | 0.01 | 0.01 | 84 | 1014.1 |
| 20260906010501 | 85 | 202 | 0.0 | 0.0 | 0.00 | 0.01 | 0.01 | 84 | 1014.0 |
| 20260906010003 | 85 | 202 | 0.0 | 0.0 | 0.00 | 0.01 | 0.01 | 83 | 1014.0 |
| 20260906005502 | 85 | 202 | 0.0 | 0.0 | 0.00 | 0.01 | 0.01 | 82 | 1013.8 |
| 20260906005001 | 86 | 202 | 0.0 | 0.0 | 0.00 | 0.01 | 0.01 | 82 | 1013.8 |
| 20260906004501 | 86 | 202 | 0.0 | 0.0 | 0.00 | 0.01 | 0.01 | 82 | 1013.8 |
| 20260906004001 | 86 | 202 | 0.0 | 0.0 | 0.00 | 0.01 | 0.01 | 81 | 1013.7 |
| 20260906001501 | 88 | 202 | 0.0 | 0.0 | 0.00 | 0.01 | 0.01 | 78 | 1013.9 |
| 20260906001001 | 88 | 202 | 0.0 | 0.0 | 0.00 | 0.01 | 0.01 | 77 | 1013.8 |
| 20260906000502 | 89 | 202 | 0.0 | 0.0 | 0.00 | 0.01 | 0.01 | 77 | 1013.6 |
| 20260906000003 | 89 | 202 | 0.0 | 0.0 | 0.00 | 0.01 | 0.01 | 77 | 1013.6 |
| 20260905235501 | 89 | 202 | 0.0 | 0.0 | 0.00 | 0.01 | 0.01 | 76 | 1013.6 |
| 20260905235002 | 89 | 202 | 0.0 | 0.0 | 0.00 | 0.01 | 0.01 | 77 | 1013.7 |
| 20260905234502 | 89 | 202 | 0.0 | 0.0 | 0.00 | 0.01 | 0.01 | 77 | 1013.8 |
| 20260905234001 | 89 | 202 | 0.0 | 0.0 | 0.00 | 0.01 | 0.01 | 77 | 1013.8 |
| 20260905233501 | 89 | 197 | 0.0 | 0.0 | 0.00 | 0.01 | 0.01 | 78 | 1013.8 |
| 20260905233001 | 89 | 202 | 0.0 | 0.0 | 0.00 | 0.01 | 0.01 | 77 | 1014.1 |
| 20260905232501 | 89 | 202 | 0.0 | 0.0 | 0.00 | 0.01 | 0.01 | 76 | 1014.1 |
| 20260905232001 | 89 | 197 | 0.0 | 0.0 | 0.01 | 0.01 | 0.01 | 76 | 1014.0 |
| 20260905231502 | 89 | 202 | 0.0 | 0.0 | 0.01 | 0.01 | 0.01 | 76 | 1014.0 |
| 20260905231002 | 90 | 202 | 0.0 | 0.0 | 0.01 | 0.01 | 0.01 | 76 | 1013.9 |
| 20260905230501 | 90 | 202 | 0.0 | 0.0 | 0.01 | 0.01 | 0.01 | 76 | 1013.9 |
| 20260905230004 | 90 | 202 | 0.0 | 0.0 | 0.01 | 0.01 | 0.01 | 75 | 1013.9 |
| 20260905225501 | 90 | 202 | 0.0 | 0.0 | 0.01 | 0.01 | 0.01 | 76 | 1013.9 |
| 20260905225001 | 90 | 197 | 0.0 | 0.0 | 0.01 | 0.01 | 0.01 | 74 | 1013.8 |
| 20260905224501 | 90 | 202 | 0.0 | 0.0 | 0.01 | 0.01 | 0.01 | 79 | 1013.9 |
| 20260905224001 | 90 | 202 | 0.0 | 0.0 | 0.01 | 0.01 | 0.01 | 77 | 1013.9 |
| 20260905223501 | 90 | 197 | 0.0 | 0.0 | 0.01 | 0.01 | 0.01 | 79 | 1013.8 |
| 20260905223002 | 89 | 202 | 0.0 | 0.0 | 0.01 | 0.01 | 0.01 | 79 | 1013.8 |
| 20260905222501 | 89 | 202 | 0.0 | 0.0 | 0.01 | 0.01 | 0.01 | 80 | 1013.8 |
| 20260905222001 | 89 | 197 | 0.0 | 0.0 | 0.00 | 0.00 | 0.00 | 80 | 1013.9 |
| 20260905221501 | 89 | 202 | 0.0 | 0.0 | 0.00 | 0.00 | 0.00 | 80 | 1013.9 |
| 20260905221001 | 88 | 202 | 0.0 | 0.0 | 0.00 | 0.00 | 0.00 | 79 | 1014.1 |
| 20260905220501 | 88 | 197 | 0.0 | 0.0 | 0.00 | 0.00 | 0.00 | 80 | 1014.2 |
| 20260905220003 | 88 | 202 | 0.0 | 0.0 | 0.00 | 0.00 | 0.00 | 82 | 1014.2 |
| 20260905215501 | 87 | 201 | 0.0 | 0.0 | 0.00 | 0.00 | 0.00 | 81 | 1014.1 |
| 20260905215000 | 87 | 196 | 0.0 | 0.0 | 0.00 | 0.00 | 0.00 | 84 | 1014.1 |
| 20260905214501 | 86 | 200 | 0.0 | 0.0 | 0.00 | 0.00 | 0.00 | 83 | 1014.0 |
| 20260905214001 | 86 | 201 | 0.0 | 0.0 | 0.00 | 0.00 | 0.00 | 85 | 1013.9 |
| 20260905212501 | 87 | 201 | 0.0 | 0.0 | 0.00 | 0.00 | 0.00 | 82 | 1013.9 |
| 20260905212000 | 87 | 200 | 0.0 | 0.0 | 0.00 | 0.00 | 0.00 | 82 | 1013.8 |
| 20260905211501 | 87 | 200 | 0.0 | 0.0 | 0.00 | 0.00 | 0.00 | 81 | 1013.8 |
| 20260905210500 | 87 | 201 | 1.0 | 5.0 | 0.00 | 0.00 | 0.00 | 76 | 1014.1 |
| 20260905205501 | 90 | 301 | 0.0 | 3.0 | 0.00 | 0.00 | 0.00 | 68 | 1014.2 |
| 20260905205002 | 93 | 334 | 1.0 | 9.0 | 0.00 | 0.00 | 0.00 | 67 | 1014.4 |
| 20260905204502 | 96 | 319 | 3.0 | 22.0 | 0.00 | 0.00 | 0.00 | 61 | 1014.4 |
| 20260905204001 | 98 | 279 | 2.0 | 22.0 | 0.00 | 0.00 | 0.00 | 54 | 1014.4 |
| 20260905203501 | 100 | 360 | 1.0 | 6.0 | 0.00 | 0.00 | 0.00 | 53 | 1014.3 |
| 20260905202501 | 100 | 321 | 0.0 | 4.0 | 0.00 | 0.00 | 0.00 | 50 | 1014.2 |
| 20260905202001 | 100 | 5 | 0.0 | 2.0 | 0.00 | 0.00 | 0.00 | 52 | 1014.3 |
| 20260905201001 | 100 | 11 | 1.0 | 5.0 | 0.00 | 0.00 | 0.00 | 54 | 1014.3 |
| 20260905200501 | 100 | 333 | 1.0 | 5.0 | 0.00 | 0.00 | 0.00 | 51 | 1014.3 |
| 20260905200001 | 99 | 331 | 1.0 | 5.0 | 0.00 | 0.00 | 0.00 | 51 | 1014.3 |
| 20260905195459 | 100 | 344 | 0.0 | 2.0 | 0.00 | 0.00 | 0.00 | 53 | 1014.5 |
| 20260905195000 | 100 | 344 | 1.0 | 4.0 | 0.00 | 0.00 | 0.00 | 51 | 1014.5 |
| 20260905194501 | 100 | 309 | 1.0 | 5.0 | 0.00 | 0.00 | 0.00 | 51 | 1014.6 |
| 20260905194000 | 100 | 322 | 1.0 | 6.0 | 0.00 | 0.00 | 0.00 | 52 | 1014.7 |
| 20260905193500 | 100 | 351 | 1.0 | 6.0 | 0.00 | 0.00 | 0.00 | 50 | 1014.8 |
| 20260905193000 | 101 | 334 | 1.0 | 8.0 | 0.00 | 0.00 | 0.00 | 51 | 1014.9 |
| 20260905192000 | 101 | 5 | 1.0 | 8.0 | 0.00 | 0.00 | 0.00 | 53 | 1014.9 |
| 20260905191502 | 101 | 202 | 1.0 | 4.0 | 0.00 | 0.00 | 0.00 | 52 | 1014.9 |
| 20260905191000 | 101 | 207 | 1.0 | 6.0 | 0.00 | 0.00 | 0.00 | 53 | 1015.0 |
| 20260905190003 | 101 | 288 | 1.0 | 7.0 | 0.00 | 0.00 | 0.00 | 50 | 1015.1 |
| 20260905185000 | 100 | 305 | 2.0 | 9.0 | 0.00 | 0.00 | 0.00 | 52 | 1015.2 |
| 20260905184502 | 100 | 348 | 1.0 | 8.0 | 0.00 | 0.00 | 0.00 | 55 | 1015.2 |
| 20260905184001 | 100 | 355 | 1.0 | 8.0 | 0.00 | 0.00 | 0.00 | 51 | 1015.3 |
| 20260905181502 | 100 | 310 | 0.0 | 5.0 | 0.00 | 0.00 | 0.00 | 54 | 1015.7 |
| 20260905181001 | 100 | 349 | 0.0 | 3.0 | 0.00 | 0.00 | 0.00 | 57 | 1015.7 |
| 20260905180501 | 100 | 349 | 0.0 | 3.0 | 0.00 | 0.00 | 0.00 | 58 | 1015.8 |
| 20260905180001 | 100 | 349 | 0.0 | 3.0 | 0.00 | 0.00 | 0.00 | 58 | 1015.7 |
| 20260905175500 | 99 | 349 | 0.0 | 2.0 | 0.00 | 0.00 | 0.00 | 57 | 1015.8 |
| 20260905175000 | 99 | 349 | 0.0 | 4.0 | 0.00 | 0.00 | 0.00 | 60 | 1015.8 |
| 20260905174500 | 99 | 346 | 1.0 | 5.0 | 0.00 | 0.00 | 0.00 | 55 | 1015.8 |
| 20260905174000 | 99 | 322 | 1.0 | 5.0 | 0.00 | 0.00 | 0.00 | 55 | 1015.8 |
| 20260905173500 | 99 | 318 | 0.0 | 5.0 | 0.00 | 0.00 | 0.00 | 56 | 1016.0 |
| 20260905173001 | 99 | 333 | 0.0 | 5.0 | 0.00 | 0.00 | 0.00 | 60 | 1016.0 |
| 20260905172500 | 99 | 355 | 0.0 | 4.0 | 0.00 | 0.00 | 0.00 | 59 | 1016.1 |
| 20260905172000 | 98 | 355 | 1.0 | 4.0 | 0.00 | 0.00 | 0.00 | 59 | 1016.1 |
| 20260905171500 | 98 | 360 | 0.0 | 4.0 | 0.00 | 0.00 | 0.00 | 60 | 1016.2 |
| 20260905170959 | 98 | 14 | 0.0 | 4.0 | 0.00 | 0.00 | 0.00 | 63 | 1016.1 |
| 20260905170500 | 98 | 14 | 1.0 | 5.0 | 0.00 | 0.00 | 0.00 | 59 | 1016.2 |
| 20260905170001 | 98 | 329 | 1.0 | 5.0 | 0.00 | 0.00 | 0.00 | 57 | 1016.4 |
| 20260905165459 | 98 | 333 | 0.0 | 4.0 | 0.00 | 0.00 | 0.00 | 61 | 1016.4 |
| 20260905165000 | 97 | 333 | 1.0 | 4.0 | 0.00 | 0.00 | 0.00 | 59 | 1016.4 |
| 20260905164500 | 97 | 338 | 2.0 | 6.0 | 0.00 | 0.00 | 0.00 | 60 | 1016.6 |
| 20260905164000 | 97 | 355 | 1.0 | 6.0 | 0.00 | 0.00 | 0.00 | 61 | 1016.5 |
| 20260905163500 | 97 | 355 | 1.0 | 5.0 | 0.00 | 0.00 | 0.00 | 61 | 1016.6 |
| 20260905163000 | 97 | 349 | 2.0 | 6.0 | 0.00 | 0.00 | 0.00 | 63 | 1016.6 |
| 20260905162500 | 96 | 321 | 1.0 | 6.0 | 0.00 | 0.00 | 0.00 | 62 | 1016.6 |
| 20260905161959 | 96 | 13 | 1.0 | 6.0 | 0.00 | 0.00 | 0.00 | 63 | 1016.6 |
| 20260905161500 | 96 | 21 | 0.0 | 4.0 | 0.00 | 0.00 | 0.00 | 61 | 1016.7 |
| 20260905161001 | 95 | 17 | 1.0 | 4.0 | 0.00 | 0.00 | 0.00 | 63 | 1016.7 |
| 20260905160500 | 95 | 19 | 1.0 | 4.0 | 0.00 | 0.00 | 0.00 | 63 | 1016.8 |
| 20260905160001 | 95 | 26 | 1.0 | 5.0 | 0.00 | 0.00 | 0.00 | 65 | 1016.8 |
| 20260905154501 | 94 | 350 | 1.0 | 5.0 | 0.00 | 0.00 | 0.00 | 65 | 1016.8 |
| 20260905154000 | 94 | 10 | 1.0 | 5.0 | 0.00 | 0.00 | 0.00 | 65 | 1016.8 |
| 20260905153000 | 93 | 355 | 1.0 | 8.0 | 0.00 | 0.00 | 0.00 | 66 | 1016.9 |
| 20260905152500 | 93 | 360 | 1.0 | 6.0 | 0.00 | 0.00 | 0.00 | 67 | 1016.8 |
| 20260905152001 | 92 | 313 | 1.0 | 5.0 | 0.00 | 0.00 | 0.00 | 67 | 1016.9 |
| 20260905151500 | 92 | 318 | 1.0 | 5.0 | 0.00 | 0.00 | 0.00 | 68 | 1016.9 |
| 20260905151000 | 92 | 344 | 2.0 | 5.0 | 0.00 | 0.00 | 0.00 | 68 | 1016.9 |
| 20260905150500 | 92 | 15 | 2.0 | 8.0 | 0.00 | 0.00 | 0.00 | 67 | 1016.9 |
| 20260905150000 | 91 | 334 | 1.0 | 8.0 | 0.00 | 0.00 | 0.00 | 67 | 1016.9 |
| 20260905145500 | 91 | 317 | 1.0 | 6.0 | 0.00 | 0.00 | 0.00 | 69 | 1016.8 |
| 20260905145000 | 91 | 187 | 1.0 | 6.0 | 0.00 | 0.00 | 0.00 | 68 | 1016.8 |
| 20260905143500 | 89 | 235 | 0.0 | 3.0 | 0.00 | 0.00 | 0.00 | 72 | 1016.8 |